User: anonymous   Login
Location: NJAA Observatory
(40.6819°N, 74.8979°W)
Time: 11:21:20
(UTC-05:00)
Language:

Cosmos 1939 Rocket - Orbit

View from above orbital plane
View from above orbital plane
View from above satellite
View from above satellite

Ground track
Ground track

The orbit data is extracted from the following two-line orbital elements,

1 19046U 88032B   14355.48182994  .00005334  00000-0  42405-3 0   808
2 19046 097.6189 046.5385 0039041 179.0199 181.1108 15.00248470436279
Epoch (UTC): 21 December 2014 11:33:50
Eccentricity: 0.0039041
inclination: 97.6189°
perigee height: 539 km
apogee height: 593 km
right ascension of ascending node: 46.5385°
argument of perigee: 179.0199°
revolutions per day: 15.00248470
mean anomaly at epoch: 181.1108°
orbit number at epoch: 43627

The dashed part of the orbit path shows where the satellite is in the earth's shadow,  

DLR